THURAYA-2

Last updated on Sat Jun 21 2025 00:02:42 GMT+0000 (Coordinated Universal Time)

1 27825U 03026A 25171.63220678 .00000130 00000+0 00000+0 0 9997 2 27825 8.2673 33.3335 0007511 357.0783 150.2602 1.00272043 80721
UTC large
Height (km)
Speed (km/s)
/
Latitude / Longitude
Inclination (degrees)
Orbital Period (minutes)
Azimuth
Elevation
Range (km)
Doppler Factor

Next 0 passes for location: London (51.5072 / 0.1276)

Sorry there are no passes over London.